Other Public Products
Issued by NWS Charleston, SC

Current Version | Previous Version | Graphics & Text | Print | Product List | Glossary On
Versions: 1 2 3 4 5 6 7 8 9 10 11 12 13 14 15 16 17 18 19 20 21 22 23 24 25 26 27 28 29 30 31 32 33 34 35 36 37 38 39 40 41 42 43 44 45 46 47 48 49 50
874
FPUS82 KCHS 242232
OPUCHS

TEST...KCHS/KSAV Gateway Observations...TEST
National Weather Service Charleston SC
600 PM EDT SUN SEP 24 2017

NOTE: "fair" indicates few or no clouds below 12,000 feet with no
significant weather and/or obstructions to visibility.

SCZ050-WAZ558-NCZ071-TXZ119-213-PAZ071-DCZ001-FLZ074-172-MI076-
NYZ176-178-MAZ016-IL014-TNZ027-NJZ106-GAZ044-MD014-242300-

...Gateway Observations for Charleston International...

CITY           SKY/WX    TMP DP  RH WIND       PRES   REMARKS
Chas Airport   CLOUDY    82  69  64 NE7       29.94R
Seattle        MOSUNNY   70  49  47 SW7       30.12F
Charlotte      PTSUNNY   83  66  56 N7        30.02F
Dallas DFW     MOSUNNY   92  63  38 S13       29.82F HX  93
Dallas Love    MOSUNNY   91  61  36 S10       29.83F HX  91
Philladelphia  PTCLDY    88  64  44 SE6       30.01S
Wash National  MOSUNNY   87  64  46 NE8       30.03S
Baltimore      MOSUNNY   87  62  43 E7        30.03S
Miami          PTSUNNY   87  74  64 E9        29.83S HX  95
Detroit        MOSUNNY   86  65  49 SE6       30.09S
Newark         PTCLDY    86  64  47 S7        30.01R
Laguardia      PTCLDY    86  65  49 S9        30.01R
J F K          CLEAR     79  62  56 SE6       30.03S
Boston Logan   CLEAR     73  64  73 NE3       30.01F
Ft. Lauderdale PTSUNNY   85  78  80 NE13      29.82S HX  96
Chicago O`Hare MOSUNNY   91  56  30 S13       30.00S
Chicago Midway MOSUNNY   89  60  37 E13       30.00S
Houston Bush   MOSUNNY   89  72  56 E10       29.84S HX  96
Houston Hobby  MOSUNNY   90  69  50 SE13      29.83S HX  94
Nashville      CLOUDY    86  63  45 SE6       30.00S
Atlanta        MOSUNNY   82  64  54 E10       30.01F

$$

GAZ044-118-TXZ119-213-NCZ071-DCZ001-MDZ014-506-PAZ021-071-NJZ106-
NYZ176-178-MAZ106-OHZ011-021-055-MIZ076-KYZ091-ILZ014-INZ047-
MNZ060-ONZ431-242300-

...Gateway Observations for Savannah International...

CITY           SKY/WX    TMP DP  RH WIND       PRES   REMARKS
Savannah Arpt  PTSUNNY   84  66  54 NE7       29.94S
Atlanta        MOSUNNY   82  64  54 E10       30.01F
Charlotte      PTSUNNY   83  66  56 N7        30.02F
Dallas DFW     MOSUNNY   92  63  38 S13       29.82F HX  93
Houston Bush   MOSUNNY   89  72  56 E10       29.84S HX  96
Wash National  MOSUNNY   87  64  46 NE8       30.03S
Wash Dulles    MOSUNNY   87  65  47 CALM      30.04S
Baltimore      MOSUNNY   87  62  43 E7        30.03S
Philadelphia   PTCLDY    88  64  44 SE6       30.01S
Newark         PTCLDY    86  64  47 S7        30.01R
Laguardia      PTCLDY    86  65  49 S9        30.01R
J F K          CLEAR     79  62  56 SE6       30.03S
Boston         CLEAR     73  64  73 NE3       30.01F
Pittsburg      MOSUNNY   87  59  38 E7        30.09S
Akron          MOSUNNY   89  59  36 E8        30.09F
Cleveland      MOSUNNY   84  64  50 NE16      30.10S
Cincinnati     MOSUNNY   87  54  32 SE10      30.05S
Columbus       SUNNY     86  60  41 SE3       30.06S
Detroit        MOSUNNY   86  65  49 SE6       30.09S
Chicago O`Hare MOSUNNY   91  56  30 S13       30.00S
Minneapolis    PTSUNNY   90  62  39 S15G25    29.84F HX  90
Indianapolis   MOSUNNY   89  55  31 SE8       30.02F
Toronto Canada MOSUNNY   88  64  45 S6        30.07F

$$




USA.gov is the U.S. government's official web portal to all federal, state and local government web resources and services.